809  
ASUS42 KCHS 220227  
RWRCHS  
 
REGIONAL WEATHER ROUNDUP  
NATIONAL WEATHER SERVICE CHARLESTON SC  
1000 PM EDT MON MAY 21 2018  
 
NOTE: "FAIR" INDICATES FEW OR NO CLOUDS BELOW 12,000 FEET WITH NO  
SIGNIFICANT WEATHER AND/OR S TO VISIBILITY
.  
 
NOT ALL STATIONS ARE QUALITY CONTROLLED. USE DATA WITH CAUTION,  
ESPECIALLY DEWPOINT OBSERVATIONS.  
 
SCZ027-030-031-034>040-042>050-220300-   
..SOUTHEAST SOUTH CAROLINA
 
 
 
CITY SKY/WX TMP DP RH WIND PRES REMARKS
 
N CHARLESTON MOCLDY 74 71 91 S5 30.14R  
WATERFRONT PRK N/A 76 73 90 S5 29.98S  
MOUNT PLEASANT FAIR 72 72 100 CALM 30.15R  
JOHNS ISLAND CLOUDY 73 72 94 S6 30.15S  
PINOPOLIS N/A 75 72 88 VRB2 30.06S  
MONCKS CORNER FAIR 72 68 88 CALM 30.15R  
SUMMERVILLE FAIR 72 70 94 CALM 30.15S  
BEAUFORT MCAS FAIR 76 72 87 SE3 30.14R  
BEAUFORT ARPT FAIR 73 70 88 CALM 30.14S  
HILTON HEAD IS FAIR 75 72 88 CALM 30.15R  
WALTERBORO FAIR 72 70 94 CALM 30.15R  
ALLENDALE FAIR 75 70 83 S5 30.12S  
   
..SOUTHERN MIDLANDS AND PEE DEE
 
 
 
CITY SKY/WX TMP DP RH WIND PRES REMARKS
 
GEORGETOWN FAIR N/A N/A N/A CALM 30.16R  
KINGSTREE FAIR 73 72 94 S3 30.14S  
ORANGEBURG FAIR 76 68 76 S5 30.14R  
BARNWELL FAIR 75 68 78 CALM 30.14R  
AIKEN FAIR 73 68 83 S5 30.17R  
MANNING FAIR 72 66 83 S5 30.14S  
COLUMBIA MOCLDY 79 70 74 S3 30.12R  
SUMTER NOT AVBL  
FLORENCE FAIR 76 68 76 S6 30.14R  
MYRTLE BEACH FAIR 75 71 87 S8 30.16R  
N MYRTLE BEACH FAIR 75 72 90 S9 30.14R  
 

 
 
GAZ063-065-086>088-099>101-113>116-118-119-134>141-150-220300-   
..SOUTHEAST GEORGIA
 
 
 
CITY SKY/WX TMP DP RH WIND PRES REMARKS
 
SAVANNAH ARPT MOCLDY 76 71 85 SE7 30.14R  
HUNTER AAF NOT AVBL  
FORT STEWART NOT AVBL  
STATESBORO FAIR 74 68 80 CALM 30.13R  
SYLVANIA FAIR 74 70 88 CALM 30.14S FOG  
CLAXTON FAIR 75 71 89 CALM 30.13R  
   
..CSRA, CENTRAL AND FAR SOUTHEAST GEORGIA
 
 
 
CITY SKY/WX TMP DP RH WIND PRES REMARKS
 
THOMSON FAIR 76 68 78 W3 30.19R  
AUGUSTA-BUSH FAIR 73 69 87 CALM 30.12R  
AUGUSTA-DANIEL FAIR 77 67 71 SE5 30.13R  
SWAINSBORO MOCLDY 72 72 100 E3 30.14R  
VIDALIA CLOUDY 73 70 88 CALM 30.13R  
EASTMAN FAIR 74 63 69 CALM 30.13R  
HAZLEHURST N/A 75 68 79 SE3 30.10S  
ALMA FAIR 73 67 81 SE3 30.10S  
WAYCROSS FAIR 73 70 90 SE5 30.11S  
JESUP RAIN 75 70 83 CALM 30.13R  
BAXLEY CLOUDY 72 72 100 CALM 30.11S  
BRUNSWICK FAIR 77 70 78 SE5 30.13S  
SAINT SIMONS FAIR 77 74 90 SE7 30.12R  
 

 
 
SCZ027-028-034-036>038-045-046-048>050-GAZ119-141-220300-   
..LAKE AND SUPPLEMENTAL COASTAL OBSERVATIONS
 
 
 
STATION/POSITION TIME TEMP WIND PRES WAVE SWELL
 
AIR SEA DIR/SP/G HT/PER HT/PER/DIR  
(UTC) (F) (DEG/KT/KT) (MB) (FT/S) (FT/S/D)  
WINYAH BAY 0145 75 180/ 4 1021.0S  
LAKE MURRAY NOT AVBL  
ACE BASIN NERRS 0145 75 140/ 2 1021.0R  
FORT PULASKI 0200 76 79 150/ 4/ 6 1020.8  
SAPELO ISLAND 0200 76 140/ 5 1020.0  
 

 
 
ANZ835-935-AMZ111-154-330-350-352-354-370-450-454-472-220300-   
..C-MAN AND BUOY OBSERVATIONS
 
 
 
STATION/POSITION TIME TEMP WIND PRES WAVE SWELL
 
AIR SEA DIR/SP/G HT/PER HT/PER/DIR  
(UTC) (F) (DEG/KT/KT) (MB) (FT/S) (FT/S/D)  
BUOY 41004 0200 76 180/ 4/ 6 1021.0  
BUOY 41008 0150 76 76 120/ 8/ 10 1020.1R 4/ 9 3/110/ 9  
FOLLY BEACH CMAN 0200 76 170/ 9/ 10 1021.5R  
CAPERS NEARSHORE 0208 77 77 190/ 10/ 14 1021.6R  
FRIPP NEARSHORE 0208 76 78 130/ 8/ 10 1020.3R  
 
 
STATION/POSITION TIME TEMP WIND PRES WAVE SWELL
 
AIR SEA DIR/SP/G HT/PER HT/PER/DIR  
(UTC) (F) (DEG/KT/KT) (MB) (FT/S) (FT/S/D)  
5E ST. MARYS GA 0200 76 N/A 3/ 9  
FRYING PAN BUOY 0210 76 76 190/ 8/ 10 1021.3  
BUOY 41025 0210 75 74 220/ 10/ 12 1021.0  
CAPE LOOKOUT NC 0200 210/ 11/ 14 1021.0R  
BUOY 41002 0210 77 150/ 8/ 12 1022.2  
BUOY 41010 0210 77 79 110/ 16/ 17 1020.6  
ST AUGUSTINE FL 0200 76 76 130/ 8/ 8 1020.0R  
 

 
 
 
CLICK HERE TO GO TO PREVIOUS BULLETINS.

The Nexlab SC Page
The Nexlab GA Page Main Text Page